Probability
0 0 0 0 0 0 0 0 0 0 0 0 0 0 0 0 0 0 0 0 0 0 0 0 0 0 0 0 0 0 0 0 0 0 0 0 0 0 0 0 0 0 0
0 0 0 0 0 0 0 0 0 0 0 0 0 0 0 0 0 0 0 0 0 0 0 0 0 0 0 0 0 0 0 0 0 0 0 0 0 0 0 0 0 0 0
0 0 0 0 0 0 0 0 0 0 0 0 0 0 0 0 0 0 0 0 0 0 0 0 0 0 0 0 0 0 0 0 0 0 0 0 0 0 0 0 0 0 0
0 0 0 0 0 0 0 0 0 0 0 0 0 0 0 0 0 0 0 0 0 0 0 0 0 0 0 0 0 0 0 0 0 0 0 0 0 0 0 0 0 0 0
0 0 0 0 0 0 0 0 0 0 0 0 0 0 0 0 0 0 0 0 0 0 0 0 0 0 0 0 0 0 0 0 0 0 0 0 0 0 0 0 0 0 0
0 0 0 0 0 0 0 0 0 0 0 0 0 0 0 0 0 0 0 0 0 0 0 0 0 0 0 0 0 0 0 0 0 0 0 0 0 0 0 0 0 0 0
0 0 0 0 0 0 0 0 0 0 0 0 0 0 0 0 0 0 0 0 0 0 0 0 0 0 0 0 0 0 0 0 0 0 0 0 0 0 0 0 0 0 0
0 0 0 0 0 0 0 0 0 0 0 0 0 0 0 0 0 0 0 0 0 0 0 0 0 0 0 0 0 0 0 0 0 0 0 0 0 0 0 0 0 0 0
0 0 0 0 0 0 0 0 0 0 0 0 0 0 0 0 0 0 0 0 0 0 0 0 0 0 0 0 0 0 0 0 0 0 0 0 0 0 0 0 0 0 0
0 0 0 0 0 0 0 0 0 0 0 0 0 0 0 0 0 0 0 0 0 0 0 0 0 0 0 0 0 0 0 0 0 0 0 0 0 0 0 0 0 0 0
0 0 0 0 0 0 0 0 0 0 0 0 0 0 0 0 0 0 0 0 0 0 0 0 0 0 0 0 0 0 0 0 0 0 0 0 0 0 0 0 0 0 0
0 0 0 0 0 0 0 0 0 0 0 0 0 0 0 0 0 0 0 0 0 0 0 0 0 0 0 0 0 0 0 0 0 0 0 0 0 0 0 0 0 0 0
0 0 0 0 0 0 0 0 0 0 0 0 0 0 0 0 0 0 0 0 0 0 0 0 0 0 0 0 0 0 0 0 0 0 0 0 0 0 0 0 0 0 0
0 0 0 0 0 0 0 0 0 0 0 0 0 0 0 0 0 0 0 0 0 0 0 0 0 0 0 0 0 0 0 0 0 0 0 0 0 0 0 0 0 0 0
0 0 0 0 0 0 0 0 0 0 0 0 0 0 0 0 0 0 0 0 0 0 0 0 0 0 0 0 0 0 0 0 0 0 0 0 0 0 0 0 0 0 0
0 0 0 0 0 0 0 0 0 0 0 0 0 0 0 0 0 0 0 0 0 0 0 0 0 0 0 0 0 0 0 0 0 0 0 0 0 0 0 0 0 0 0
0 0 0 0 0 0 0 0 0 0 0 0 0 0 0 0 0 0 0 0 0 0 0 0 0 0 0 0 0 0 0 0 0 0 0 0 0 0 0 0 0 0 0
0 0 0 0 0 0 0 0 0 0 0 0 0 0 0 0 0 0 0 0 0 0 0 0 0 0 0 0 0 0 0 0 0 0 0 0 0 0 0 0 0 0 0
0 0 0 0 0 0 0 0 0 0 0 0 0 0 0 0 0 0 0 0 0 0 0 0 0 0 0 0 0 0 0 0 0 0 0 0 0 0 0 0 0 0 0
0 0 0 0 0 0 0 0 0 0 0 0 0 0 0 0 0 0 0 0 0 0 0 0 0 0 0 0 0 0 0 0 0 0 0 0 0 0 0 0 0 0 0
0 0 0 0 0 0 0 0 0 0 0 0 0 0 0 0 0 0 0 0 0 0 0 0 0 0 0 0 0 0 0 0 0 0 0 0 0 0 0 0 0 0 0
0 0 0 0 0 0 0 0 0 0 0 0 0 0 0 0 0 0 0 0 0 0 0 0 0 0 0 0 0 0 0 0 0 0 0 0 0 0 0 0 0 0 0
0 0 0 0 0 0 0 0 0 0 0 0 0 0 0 0 0 0 0 0 0 0 0 0 0 0 0 0 0 0 0 0 0 0 0 0 0 0 0 0 0 0 0
0 0 0 0 0 0 0 0 0 0 0 0 0 0 0 0 0 0 0 0 0 0 0 0 0 0 0 0 0 0 0 0 0 0 0 0 0 0 0 0 0 0 0
0 0 0 0 0 0 0 0 0 0 0 0 0 0 0 0 0 0 0 0 0 0 0 0 0 0 0 0 0 0 0 0 0 0 0 0 0 0 0 0 0 0 0
0 0 0 0 0 0 0 0 0 0 0 0 0 0 0 0 0 0 0 0 0 0 0 0 0 0 0 0 0 0 0 0 0 0 0 0 0 0 0 0 0 0 0
Height
5587 5587 5587 5587 5588 5588 5589 5590 5590 5590 5590 5590 5591 5592 5593 5594 5595 5596 5597 5599 5601 5603 5605 5608 5610 5611 5612 5614 5615 5617 5619 5622 5625 5630 5632 5633 5635 5638 5641 5644 5648 5651 5654
5575 5575 5574 5574 5574 5575 5575 5576 5575 5575 5575 5576 5576 5577 5578 5578 5579 5580 5582 5583 5585 5587 5589 5591 5593 5595 5596 5598 5600 5602 5604 5606 5609 5613 5616 5618 5620 5623 5625 5629 5632 5635 5639
5563 5563 5562 5562 5561 5562 5562 5562 5561 5561 5561 5561 5561 5562 5562 5563 5564 5565 5566 5567 5569 5571 5573 5575 5577 5578 5580 5581 5583 5586 5588 5590 5592 5595 5599 5601 5604 5607 5609 5613 5616 5619 5623
5552 5551 5550 5549 5549 5548 5548 5548 5547 5547 5546 5546 5546 5547 5547 5548 5549 5549 5550 5551 5553 5554 5556 5558 5559 5561 5563 5564 5567 5569 5571 5574 5576 5579 5582 5585 5588 5590 5593 5596 5600 5603 5606
5539 5538 5537 5536 5536 5535 5535 5534 5533 5533 5532 5532 5532 5532 5532 5533 5533 5534 5534 5535 5536 5537 5539 5540 5542 5544 5546 5547 5550 5552 5554 5557 5559 5562 5566 5569 5571 5574 5577 5580 5583 5586 5590
5528 5526 5525 5523 5523 5522 5521 5520 5520 5519 5518 5517 5517 5517 5517 5517 5518 5518 5518 5519 5519 5520 5522 5523 5525 5527 5529 5531 5533 5535 5538 5540 5543 5546 5549 5552 5555 5558 5560 5563 5565 5569 5575
5516 5514 5512 5511 5510 5509 5507 5506 5505 5504 5503 5503 5502 5501 5501 5502 5501 5501 5501 5502 5503 5503 5505 5506 5508 5510 5511 5513 5515 5518 5520 5523 5526 5529 5532 5536 5538 5541 5543 5546 5549 5552 5557
5504 5502 5500 5499 5497 5495 5494 5493 5491 5490 5489 5487 5486 5486 5486 5486 5486 5485 5484 5485 5486 5487 5488 5489 5491 5493 5494 5496 5498 5501 5503 5506 5509 5513 5516 5519 5521 5523 5525 5528 5531 5535 5539
5492 5490 5488 5486 5484 5482 5480 5479 5477 5476 5474 5472 5471 5470 5470 5470 5469 5469 5468 5468 5469 5471 5472 5473 5474 5476 5478 5480 5482 5485 5488 5490 5492 5496 5499 5501 5504 5506 5508 5510 5514 5517 5522
5479 5477 5475 5473 5471 5469 5467 5465 5463 5461 5459 5458 5456 5455 5454 5454 5454 5453 5452 5453 5454 5455 5456 5457 5458 5460 5461 5463 5465 5468 5471 5474 5476 5479 5482 5484 5487 5489 5491 5494 5497 5500 5504
5467 5465 5463 5460 5458 5455 5453 5451 5448 5447 5445 5443 5442 5441 5440 5439 5439 5438 5437 5437 5438 5439 5440 5441 5442 5444 5445 5447 5449 5452 5455 5457 5459 5462 5464 5467 5469 5472 5475 5477 5480 5483 5487
5456 5453 5450 5447 5445 5442 5439 5437 5435 5432 5431 5429 5428 5427 5426 5425 5424 5423 5422 5422 5422 5424 5425 5426 5427 5428 5430 5431 5433 5436 5438 5440 5442 5444 5447 5450 5452 5455 5458 5460 5463 5466 5470
5445 5441 5438 5435 5432 5429 5426 5424 5421 5419 5417 5416 5414 5413 5413 5411 5411 5409 5408 5407 5407 5408 5410 5411 5412 5413 5414 5416 5418 5420 5421 5423 5425 5428 5431 5433 5436 5438 5441 5443 5447 5450 5454
5434 5430 5426 5423 5420 5417 5413 5411 5409 5406 5405 5403 5402 5401 5399 5398 5397 5396 5394 5394 5393 5394 5394 5396 5397 5397 5399 5400 5402 5404 5405 5407 5409 5412 5414 5416 5418 5421 5424 5427 5430 5433 5437
5423 5419 5415 5412 5408 5405 5402 5399 5396 5394 5392 5391 5389 5388 5387 5386 5385 5383 5381 5381 5380 5380 5380 5381 5382 5383 5384 5386 5388 5389 5391 5392 5394 5396 5398 5400 5402 5405 5408 5411 5414 5417 5421
5412 5408 5405 5401 5397 5393 5390 5387 5384 5382 5380 5377 5376 5374 5374 5373 5372 5370 5369 5367 5366 5366 5366 5367 5368 5369 5370 5372 5373 5375 5376 5378 5379 5381 5383 5385 5387 5390 5393 5396 5398 5402 5406
5402 5398 5394 5390 5387 5383 5379 5376 5373 5371 5368 5366 5363 5362 5361 5360 5359 5357 5356 5355 5354 5353 5353 5354 5355 5356 5357 5357 5359 5361 5362 5364 5365 5367 5369 5371 5373 5376 5378 5381 5385 5388 5392
5392 5388 5384 5380 5377 5373 5369 5366 5362 5360 5357 5355 5352 5350 5348 5347 5346 5345 5344 5343 5342 5341 5341 5341 5342 5343 5343 5344 5345 5347 5349 5350 5352 5354 5356 5358 5360 5363 5366 5369 5372 5375 5379
5383 5379 5375 5371 5367 5363 5359 5356 5352 5349 5346 5344 5341 5339 5337 5336 5335 5334 5332 5331 5330 5330 5329 5329 5330 5330 5331 5332 5333 5334 5336 5338 5340 5342 5344 5346 5349 5351 5354 5357 5360 5364 5367
5373 5369 5365 5361 5357 5353 5350 5346 5342 5339 5336 5334 5331 5329 5327 5326 5325 5324 5323 5321 5320 5319 5319 5318 5318 5319 5319 5320 5321 5323 5324 5326 5328 5331 5333 5336 5338 5340 5343 5346 5349 5352 5356
5364 5360 5356 5352 5348 5344 5340 5336 5332 5329 5326 5324 5322 5320 5318 5317 5316 5315 5313 5312 5311 5310 5309 5308 5308 5309 5309 5310 5311 5312 5314 5316 5318 5320 5323 5325 5328 5330 5333 5336 5339 5342 5345
5355 5351 5346 5342 5338 5334 5330 5327 5323 5320 5317 5315 5313 5311 5309 5308 5306 5305 5305 5304 5302 5301 5300 5300 5300 5300 5300 5300 5301 5302 5304 5306 5308 5310 5313 5315 5318 5320 5323 5326 5329 5332 5335
5346 5342 5337 5333 5329 5325 5322 5318 5315 5312 5309 5306 5304 5302 5300 5299 5298 5297 5296 5295 5294 5293 5292 5292 5291 5291 5291 5292 5293 5294 5295 5297 5299 5301 5303 5306 5308 5311 5314 5317 5320 5323 5326
5337 5333 5329 5324 5320 5317 5313 5310 5307 5304 5301 5299 5296 5294 5293 5291 5290 5289 5288 5287 5286 5286 5285 5285 5284 5284 5285 5285 5286 5286 5288 5289 5291 5293 5295 5297 5300 5302 5305 5308 5311 5314 5316
5328 5324 5320 5316 5312 5309 5305 5302 5299 5296 5294 5291 5289 5287 5286 5284 5283 5282 5281 5280 5279 5279 5278 5278 5278 5278 5278 5278 5279 5280 5281 5282 5284 5285 5287 5289 5292 5294 5297 5300 5303 5305 5307
5320 5316 5311 5307 5304 5300 5297 5294 5292 5289 5287 5284 5282 5281 5279 5278 5276 5275 5274 5273 5273 5272 5272 5272 5272 5272 5272 5273 5273 5274 5274 5276 5277 5279 5280 5282 5284 5287 5289 5292 5295 5297 5300
Wind_Speed
42 43 44 44 44 45 45 46 47 48 49 50 50 50 51 52 54 55 54 55 55 56 56 56 57 57 58 58 58 58 58 58 57 55 56 57 57 57 57 56 56 56 56
42 42 43 44 44 45 46 47 48 49 49 50 51 52 52 52 53 55 55 55 56 56 56 57 57 57 58 58 59 58 58 59 59 58 57 58 58 58 58 58 58 58 58
40 41 42 44 45 45 46 47 48 48 49 50 50 51 52 53 53 54 53 55 55 55 56 57 58 57 57 58 59 59 59 59 59 58 57 58 59 59 59 59 59 59 60
41 42 43 44 44 45 46 47 47 48 48 49 51 51 52 52 52 53 54 55 57 57 57 58 58 58 58 58 59 60 60 59 59 58 57 57 58 59 59 59 59 58 59
42 42 43 44 45 46 46 47 46 46 47 48 50 51 52 53 53 53 55 56 56 58 58 58 59 58 58 58 58 59 60 59 59 59 59 59 58 58 59 59 59 58 58
41 42 43 43 45 46 47 47 47 48 48 49 50 51 51 53 54 54 56 57 57 58 59 58 58 58 58 58 59 60 59 59 58 59 58 58 58 58 59 60 60 60 59
41 42 43 43 44 46 47 46 46 47 48 49 50 51 52 52 53 54 55 56 57 57 58 59 59 58 58 58 58 59 59 59 59 59 59 59 58 59 60 60 61 60 60
42 43 43 43 43 44 45 45 46 48 48 49 50 51 52 52 52 54 55 55 55 56 56 57 57 58 57 57 58 58 58 58 59 59 59 59 59 59 60 60 61 61 61
42 42 43 43 43 44 45 45 46 47 48 49 49 50 51 51 51 52 53 53 53 53 54 55 56 56 57 57 58 58 58 58 59 60 60 60 60 60 60 61 61 61 61
41 41 42 43 44 44 44 45 46 47 47 48 48 48 49 50 51 52 52 52 52 53 53 54 54 55 56 57 57 57 57 58 59 60 60 60 60 60 61 60 60 61 60
39 40 42 42 43 44 44 45 46 46 47 47 47 48 48 48 48 50 51 51 51 52 52 52 52 53 54 55 56 56 57 57 58 58 58 59 59 60 60 60 59 60 60
38 39 40 41 42 42 43 43 44 45 46 46 47 47 47 47 47 48 49 50 50 51 51 51 51 51 53 54 55 55 56 57 57 57 58 58 58 58 58 58 58 59 59
38 38 39 39 40 41 41 42 43 44 44 44 45 45 46 47 47 47 47 48 49 50 49 49 50 51 52 53 53 54 54 55 55 55 56 56 56 57 57 57 57 57 58
36 37 38 38 38 39 39 39 40 41 42 42 43 43 44 45 45 45 45 46 47 48 48 49 49 50 51 52 52 52 52 53 53 53 53 53 54 55 56 56 56 57 58
36 36 36 37 37 37 37 38 39 40 40 41 41 42 42 42 43 44 44 44 45 45 46 47 47 48 49 50 50 50 50 51 51 52 52 52 52 53 53 54 55 55 56
34 35 35 35 35 36 36 36 37 37 38 39 39 40 40 41 41 42 43 44 45 45 46 45 45 46 46 47 49 49 50 50 50 50 50 50 50 51 51 52 52 52 52
34 34 34 34 35 35 35 35 35 35 35 36 38 38 39 39 40 40 41 42 43 43 44 44 45 45 45 46 47 48 48 48 48 47 48 48 48 49 48 48 49 50 49
32 33 33 34 34 34 34 34 34 34 34 34 35 36 37 38 38 39 39 39 40 41 42 42 42 43 43 43 44 45 45 45 45 45 45 45 45 45 45 45 46 47 47
32 33 33 33 33 33 33 34 34 34 34 33 34 34 34 34 35 35 36 36 36 37 38 39 39 39 39 40 41 42 42 42 42 41 41 41 42 42 43 43 44 45 45
32 33 33 33 33 33 33 33 33 33 33 33 32 32 32 31 32 32 32 32 31 32 33 34 35 35 36 37 37 38 38 38 38 37 37 38 39 40 41 41 41 42 43
33 33 33 33 33 33 33 33 33 32 31 31 31 31 31 30 30 30 29 29 28 29 29 30 31 32 32 33 33 34 34 34 34 34 34 35 36 37 37 38 39 40 41
32 33 32 32 32 32 32 31 31 30 29 29 29 29 29 28 28 27 27 27 26 26 27 28 28 29 29 29 30 31 31 32 32 33 33 33 35 36 37 37 38 39 39
32 32 31 31 31 31 30 30 28 28 27 27 26 27 27 27 26 26 25 25 25 24 25 25 25 26 26 26 27 28 29 30 31 31 31 32 33 34 35 36 36 36 37
31 31 31 30 30 29 28 28 27 27 26 25 24 24 24 24 24 24 23 23 23 23 23 22 22 22 22 23 24 25 26 27 28 29 30 30 31 31 32 33 33 34 34
31 31 30 29 29 28 27 27 26 25 24 23 23 22 22 22 22 22 22 22 21 21 21 21 20 21 21 21 22 22 24 25 26 27 28 28 28 28 29 30 30 30 31
30 30 29 28 28 27 27 26 25 24 22 21 21 20 20 20 20 20 21 21 20 20 20 19 20 20 20 20 20 21 22 23 24 25 26 26 26 27 28 28 28 29 30
Wind_Direction
265 265 264 263 263 262 263 262 263 263 263 262 262 261 261 261 260 259 258 257 256 256 256 256 257 257 257 257 258 258 258 257 257 255 254 254 254 254 254 254 253 252 252
266 265 265 264 264 264 265 265 265 265 265 264 262 263 262 262 261 260 259 258 257 256 256 257 257 258 258 257 257 257 258 257 258 256 255 254 255 254 254 255 255 253 252
268 267 266 266 265 265 266 267 266 266 266 265 264 263 263 262 261 260 260 258 258 257 257 258 258 258 258 258 257 257 257 257 257 257 256 255 255 255 255 255 255 254 253
269 269 268 268 266 266 266 267 267 266 266 266 265 264 263 263 262 262 262 260 259 258 259 259 259 258 258 258 257 256 256 256 256 256 256 255 255 255 255 255 255 255 254
271 271 270 269 267 267 268 268 268 268 267 266 266 264 264 263 263 263 263 262 261 260 259 259 258 258 257 257 256 255 255 255 255 256 256 256 255 255 255 254 254 254 255
272 272 271 270 269 268 269 269 268 267 268 268 267 266 265 264 264 264 264 262 262 261 260 260 259 258 257 256 255 255 255 254 255 255 255 256 256 255 255 254 254 254 255
274 273 272 272 271 270 270 269 269 268 268 268 267 267 265 265 265 265 265 264 263 263 262 260 259 258 257 256 255 255 254 254 255 255 255 256 256 255 255 254 254 254 254
275 274 274 274 273 273 272 271 270 269 269 269 268 267 266 265 265 266 265 264 264 263 262 260 259 257 256 256 256 255 255 255 254 255 255 256 256 256 256 256 254 254 254
277 275 275 275 275 274 273 272 271 271 270 269 270 268 266 265 265 266 266 265 264 263 262 261 260 258 257 257 257 257 256 256 255 255 255 256 256 256 257 256 255 255 254
279 278 276 276 276 275 274 273 273 272 271 269 270 269 268 267 266 266 267 266 264 263 262 261 261 259 258 257 258 258 257 256 256 256 256 256 256 256 256 255 255 254 254
282 280 279 278 277 276 275 273 273 273 272 270 270 269 268 268 268 268 267 266 265 263 262 262 261 260 259 258 258 258 257 257 256 256 256 256 256 256 256 255 255 253 253
285 283 282 281 279 277 275 275 274 273 273 272 271 270 269 268 269 269 267 266 265 264 263 262 261 260 259 259 259 259 258 257 257 256 255 256 255 254 254 254 252 252 252
287 286 284 283 281 279 277 276 274 273 273 273 272 270 269 269 269 269 267 266 265 264 263 262 261 260 259 258 258 259 259 258 257 256 255 255 254 253 253 253 252 252 251
289 288 287 285 283 281 279 277 276 273 272 272 273 271 270 269 269 269 268 267 266 265 263 262 261 260 259 259 258 259 259 259 258 257 256 255 254 253 252 251 252 251 249
291 290 288 286 285 283 282 280 278 276 274 273 273 271 271 270 270 269 269 267 266 264 263 261 260 259 260 259 259 259 260 260 260 258 256 255 254 253 252 251 250 249 248
292 291 290 289 288 287 286 284 282 279 277 275 274 273 272 271 271 270 270 269 267 266 264 262 261 261 261 260 259 259 259 260 259 259 256 255 254 252 251 251 251 249 248
294 293 292 291 291 290 288 287 285 282 281 279 277 276 275 273 272 272 272 270 268 266 265 264 263 262 261 260 259 259 259 259 259 257 256 255 254 253 251 250 249 248 246
296 296 295 294 293 292 291 289 287 285 284 283 281 279 277 276 274 274 273 272 270 267 266 265 263 262 261 259 258 258 258 258 257 257 255 254 253 251 249 248 248 247 245
297 298 297 296 295 294 293 292 290 288 286 284 283 281 279 277 276 275 276 275 273 270 267 265 264 263 262 261 259 258 257 256 256 255 252 251 251 250 249 248 248 246 244
298 298 298 297 296 295 294 294 292 291 289 286 284 282 281 279 277 276 276 277 275 272 268 266 264 264 263 261 258 256 254 253 252 251 249 249 249 249 248 247 246 245 244
298 299 299 298 297 297 296 296 295 292 290 288 285 283 282 280 278 276 276 277 276 273 269 266 265 264 262 259 257 254 253 252 250 248 249 249 248 247 246 246 245 245 245
299 299 299 299 298 298 298 298 296 293 291 289 287 284 283 281 278 277 277 277 276 274 271 268 265 263 261 258 255 253 252 250 248 248 248 248 247 247 247 246 247 247 247
301 301 301 300 299 299 299 299 298 295 292 290 288 286 283 282 280 278 277 277 276 274 272 270 266 264 262 259 256 254 251 249 248 248 249 248 247 246 246 246 246 246 246
302 302 301 300 299 299 299 299 298 297 294 291 289 287 284 282 280 278 277 276 275 273 271 269 266 263 262 260 258 255 252 250 249 248 248 247 246 245 245 244 245 245 245
302 302 302 301 299 298 298 298 298 298 295 292 290 288 285 282 281 280 277 276 275 273 270 268 266 265 262 260 258 255 253 251 249 248 246 245 244 243 242 242 242 242 243
303 303 303 301 300 299 298 297 296 295 294 292 289 287 286 284 281 280 278 276 274 272 269 267 267 266 262 259 257 256 253 251 249 246 244 244 243 240 239 239 240 240 242